sat.trackr.live / text

‹ back to catalog

STARLINK-5878

NORAD 55955 · 2023-037AT

PAYLOAD ACTIVE UNKNOWN

§ Identity

Operator
Country
US
Launch date
2023-03-17
Launch site
AFWTR
Launch vehicle
Mass (kg)
RCS (m²)

Purposes: comms

External: N2YO · Heavens-Above · Gunter

§ Orbital elements

Epoch: 2026-05-25T04:56:33.381888Z

Period
96.11 min
Inclination
70.0003°
Eccentricity
0.0003068
Mean motion
14.98327517 rev/d
Perigee alt
569.9 km
Apogee alt
574.2 km
Semi-major
6,950.2 km
B*
3.9069e-4
RAAN
71.5713°
Arg perigee
267.5503°
Mean anomaly
92.5305°
Rev number
17,593

§ Raw data

STARLINK-58781 55955U 23037AT  26145.20594192  .00004571  00000+0  39069-3 0  99902 55955  70.0003  71.5713 0003068 267.5503  92.5305 14.98327517175936

JSON: /api/v1/satellites/55955 · /tle

For live sub-satellite position, see the globe view (requires WebGL).

§ Visibility from observer

Set your observer location to see the next 7 days of passes ≥ 10°. The values pass through the URL so the page stays shareable.

No JS? Fill the form by hand. The geolocation button needs JavaScript.